TimeEDT,TemperatureF,Dew PointF,Humidity,Sea Level PressureIn,VisibilityMPH,Wind Direction,Wind SpeedMPH,Gust SpeedMPH,PrecipitationIn,Events,Conditions,WindDirDegrees,DateUTC
12:53 AM,75.0,73.0,94,30.09,10.0,Calm,Calm,-,N/A,,Scattered Clouds,0,2013-07-18 04:53:00
1:53 AM,75.0,73.0,94,30.08,10.0,NNW,3.5,-,N/A,,Scattered Clouds,340,2013-07-18 05:53:00
2:16 AM,73.4,73.4,100,30.07,10.0,Calm,Calm,-,N/A,Thunderstorm,Thunderstorm,0,2013-07-18 06:16:00
2:35 AM,73.4,73.4,100,30.07,10.0,Calm,Calm,-,N/A,,Scattered Clouds,0,2013-07-18 06:35:00
2:53 AM,73.9,73.0,97,30.06,10.0,NNW,3.5,-,N/A,,Mostly Cloudy,340,2013-07-18 06:53:00
3:03 AM,73.4,73.4,100,30.06,10.0,Calm,Calm,-,N/A,,Mostly Cloudy,0,2013-07-18 07:03:00
3:53 AM,75.0,73.0,94,30.06,10.0,Calm,Calm,-,N/A,,Partly Cloudy,0,2013-07-18 07:53:00
4:10 AM,73.4,73.4,100,30.05,10.0,NNE,4.6,-,N/A,Thunderstorm,Thunderstorm,20,2013-07-18 08:10:00
4:49 AM,73.4,73.4,100,30.06,10.0,Calm,Calm,-,N/A,,Scattered Clouds,0,2013-07-18 08:49:00
4:53 AM,73.9,73.0,97,30.06,10.0,Calm,Calm,-,N/A,,Scattered Clouds,0,2013-07-18 08:53:00
5:53 AM,73.9,73.0,97,30.07,10.0,Calm,Calm,-,N/A,,Scattered Clouds,0,2013-07-18 09:53:00
6:53 AM,75.9,73.0,91,30.09,10.0,ENE,5.8,-,N/A,,Mostly Cloudy,70,2013-07-18 10:53:00
7:53 AM,77.0,73.0,88,30.09,10.0,East,4.6,-,N/A,,Mostly Cloudy,80,2013-07-18 11:53:00
8:53 AM,75.9,72.0,87,30.12,10.0,ESE,12.7,-,N/A,,Mostly Cloudy,110,2013-07-18 12:53:00
9:53 AM,75.0,72.0,90,30.13,6.0,SE,6.9,-,0.02,Rain,Light Rain,130,2013-07-18 13:53:00
10:04 AM,75.2,71.6,89,30.14,5.0,SSE,4.6,-,0.04,Rain-Thunderstorm,Thunderstorms and Rain,160,2013-07-18 14:04:00
10:48 AM,73.4,71.6,94,30.12,5.0,Calm,Calm,-,0.12,Rain,Rain,0,2013-07-18 14:48:00
10:53 AM,73.9,71.1,91,30.12,5.0,Calm,Calm,-,0.12,Rain,Light Rain,0,2013-07-18 14:53:00
11:53 AM,75.9,73.0,91,30.13,10.0,Calm,Calm,-,0.06,Rain,Light Rain,0,2013-07-18 15:53:00
12:53 PM,78.1,72.0,81,30.13,10.0,SSE,9.2,-,0.00,,Mostly Cloudy,150,2013-07-18 16:53:00
1:53 PM,81.0,73.9,79,30.10,10.0,ESE,8.1,-,N/A,,Scattered Clouds,120,2013-07-18 17:53:00
2:53 PM,82.0,75.9,82,30.09,10.0,ESE,8.1,-,N/A,,Scattered Clouds,120,2013-07-18 18:53:00
3:53 PM,82.9,75.9,79,30.08,10.0,SE,10.4,-,N/A,,Scattered Clouds,130,2013-07-18 19:53:00
4:22 PM,82.4,75.2,79,30.08,10.0,SE,9.2,-,N/A,,Mostly Cloudy,130,2013-07-18 20:22:00
4:53 PM,82.0,75.9,82,30.07,10.0,East,9.2,-,N/A,,Scattered Clouds,100,2013-07-18 20:53:00
5:04 PM,75.2,69.8,83,30.09,10.0,WNW,13.8,20.7,N/A,Thunderstorm,Thunderstorm,290,2013-07-18 21:04:00
5:16 PM,73.4,69.8,88,30.09,10.0,NW,11.5,19.6,N/A,Thunderstorm,Thunderstorm,310,2013-07-18 21:16:00
5:28 PM,73.4,71.6,94,30.10,1.0,West,12.7,-,0.13,Rain-Thunderstorm,Heavy Thunderstorms and Rain,280,2013-07-18 21:28:00
5:48 PM,71.6,71.6,100,30.08,3.0,NNW,13.8,-,1.07,Rain,Rain,330,2013-07-18 21:48:00
5:53 PM,72.0,71.1,97,30.09,6.0,NW,10.4,-,1.08,Rain,Light Rain,310,2013-07-18 21:53:00
6:07 PM,71.6,71.6,100,30.08,9.0,NW,9.2,-,0.03,Rain,Light Rain,310,2013-07-18 22:07:00
6:31 PM,71.6,69.8,94,30.10,7.0,Calm,Calm,-,0.04,Rain-Thunderstorm,Light Thunderstorms and Rain,0,2013-07-18 22:31:00
6:53 PM,73.0,72.0,96,30.11,5.0,SSE,5.8,-,0.08,Rain-Thunderstorm,Thunderstorms and Rain,150,2013-07-18 22:53:00
7:13 PM,73.4,71.6,94,30.09,7.0,NNE,5.8,-,0.02,Rain,Light Rain,20,2013-07-18 23:13:00
7:44 PM,73.4,71.6,94,30.10,5.0,NE,4.6,-,0.06,Rain-Thunderstorm,Light Thunderstorms and Rain,40,2013-07-18 23:44:00
7:53 PM,73.0,72.0,96,30.10,6.0,NNE,4.6,-,0.08,Rain-Thunderstorm,Light Thunderstorms and Rain,20,2013-07-18 23:53:00
8:53 PM,73.9,73.0,97,30.11,10.0,East,4.6,-,0.10,Rain,Light Rain,80,2013-07-19 00:53:00
9:53 PM,73.9,72.0,93,30.08,10.0,Calm,Calm,-,0.01,,Scattered Clouds,0,2013-07-19 01:53:00
10:53 PM,75.0,72.0,90,30.09,10.0,Calm,Calm,-,N/A,,Scattered Clouds,0,2013-07-19 02:53:00
11:53 PM,75.9,72.0,87,30.10,10.0,SE,3.5,-,N/A,,Partly Cloudy,130,2013-07-19 03:53:00